Date String (YYYY-MM-DD hh:mm:ss) UTC,Instrument flags,Ambient pressure (hPa),Sample flow (lpm),Bypass flow (lpm),Sample temperature (°C),Ambient temperature (°C),ASC tube jacket temperature (°C),LED temperature (°C),Box temperature (°C),Sample RH (%),Span deviation,Mass concentration (μg/m³),Mass concentration (μg/m³),Mass concentration (μg/m³)
DateTimeUTC,F1_M11,P_M11,Q1_M11,Q2_M11,T1_M11,T2_M11,T3_M11,T4_M11,T5_M11,U1_M11,ZSPAN_M11,X0_M11,X2_M11,X1_M11
2021-11-23 16:00:00,,0819.8,5.00,0.00,26.3,25.4,00.0,35.2,28.1,03.1,0000.0,0011.13,0001.96,0000.84
2021-11-23 16:01:00,,0819.7,4.99,0.00,26.3,25.4,00.0,35.2,28.1,03.3,0000.0,0011.22,0001.97,0000.82
2021-11-23 16:02:00,,0819.8,5.00,0.00,26.3,25.4,00.0,35.2,28.1,03.3,0000.0,0011.45,0001.96,0000.77
2021-11-23 16:03:00,,0819.9,5.00,0.00,26.3,25.4,00.0,35.2,28.1,03.2,0000.0,0012.16,0001.82,0000.65
2021-11-23 16:04:00,,0819.9,4.99,0.00,26.3,25.4,00.0,35.2,28.1,03.2,0000.0,0012.35,0001.67,0000.53
2021-11-23 16:05:00,,0819.9,4.98,0.00,26.3,25.4,00.0,35.3,28.1,03.2,0000.0,0012.88,0001.50,0000.47
2021-11-23 16:06:00,,0819.8,4.99,0.00,26.3,25.4,00.0,35.3,28.1,03.2,0000.0,0012.43,0001.33,0000.45
2021-11-23 16:07:00,,0819.9,5.01,0.00,26.3,25.4,00.0,35.3,28.1,03.2,0000.0,0011.05,0001.20,0000.45
2021-11-23 16:08:00,,0819.8,5.00,0.00,26.3,25.4,00.0,35.3,28.1,03.2,0000.0,0010.70,0001.12,0000.46
2021-11-23 16:09:00,,0819.7,5.00,0.00,26.3,25.4,00.0,35.3,28.1,03.2,0000.0,0010.33,0001.06,0000.45
2021-11-23 16:10:00,,0819.5,5.00,0.00,26.3,25.4,00.0,35.3,28.1,03.2,0000.0,0009.81,0001.07,0000.44
2021-11-23 16:11:00,,0819.4,5.00,0.00,26.3,25.4,00.0,35.3,28.1,03.1,0000.0,0009.88,0001.19,0000.46
2021-11-23 16:12:00,,0819.3,4.99,0.00,26.3,25.4,00.0,35.3,28.0,03.1,0000.0,0010.88,0001.32,0000.47
2021-11-23 16:13:00,,0819.4,5.00,0.00,26.3,25.4,00.0,35.3,28.0,03.2,0000.0,0011.30,0001.38,0000.49
2021-11-23 16:14:00,,0819.3,5.00,0.00,26.3,25.4,00.0,35.3,28.0,03.1,0000.0,0011.41,0001.46,0000.50
2021-11-23 16:15:00,,0819.2,5.01,0.00,26.3,25.4,00.0,35.3,28.1,03.1,0000.0,0011.41,0001.48,0000.50
2021-11-23 16:16:00,,0819.3,4.99,0.00,26.3,25.4,00.0,35.3,28.0,03.1,0000.0,0011.24,0001.51,0000.51
2021-11-23 16:17:00,,0819.3,4.99,0.00,26.3,25.4,00.0,35.3,28.0,03.1,0000.0,0011.17,0001.58,0000.51
2021-11-23 16:18:00,,0819.2,5.01,0.00,26.2,25.4,00.0,35.3,28.0,03.1,0000.0,0011.03,0001.62,0000.51
2021-11-23 16:19:00,,0819.2,5.00,0.00,26.2,25.4,00.0,35.3,28.0,03.0,0000.0,0010.74,0001.62,0000.51
2021-11-23 16:20:00,,0819.1,5.00,0.00,26.2,25.3,00.0,35.3,28.0,03.0,0000.0,0011.19,0001.62,0000.50
2021-11-23 16:21:00,,0819.3,5.00,0.00,26.2,25.3,00.0,35.3,28.0,03.0,0000.0,0010.51,0001.61,0000.51
2021-11-23 16:22:00,,0819.4,5.00,0.00,26.2,25.3,00.0,35.3,28.0,03.0,0000.0,0009.43,0001.47,0000.48
2021-11-23 16:23:00,,0819.2,5.02,0.00,26.2,25.3,00.0,35.3,28.0,03.0,0000.0,0008.68,0001.27,0000.46
2021-11-23 16:24:00,,0819.3,4.99,0.00,26.2,25.3,00.0,35.3,28.0,03.0,0000.0,0007.55,0001.19,0000.46
2021-11-23 16:25:00,,0819.3,5.01,0.00,26.2,25.3,00.0,35.3,28.0,03.0,0000.0,0005.81,0001.10,0000.45
2021-11-23 16:26:00,,0819.4,5.00,0.00,26.2,25.3,00.0,35.3,27.9,03.0,0000.0,0004.86,0001.05,0000.46
2021-11-23 16:27:00,,0819.4,4.99,0.00,26.2,25.3,00.0,35.3,27.9,03.0,0000.0,0003.97,0001.02,0000.45
2021-11-23 16:28:00,,0819.5,4.99,0.00,26.2,25.2,00.0,35.3,27.9,03.0,0000.0,0003.48,0000.95,0000.46
2021-11-23 16:29:00,,0819.6,4.99,0.00,26.2,25.2,00.0,35.3,27.9,03.1,0000.0,0003.06,0000.93,0000.47
2021-11-23 16:30:00,,0819.5,5.01,0.00,26.2,25.1,00.0,35.3,27.9,03.1,0000.0,0002.91,0000.89,0000.46
2021-11-23 16:31:00,,0819.6,4.99,0.00,26.2,25.1,00.0,35.2,27.9,03.1,0000.0,0002.04,0000.85,0000.46
2021-11-23 16:32:00,,0819.6,5.00,0.00,26.2,25.1,00.0,35.2,27.9,03.1,0000.0,0001.77,0000.77,0000.46
2021-11-23 16:33:00,,0819.5,5.01,0.00,26.2,25.1,00.0,35.2,27.8,03.1,0000.0,0001.76,0000.74,0000.47
2021-11-23 16:34:00,,0819.5,4.99,0.00,26.2,25.1,00.0,35.2,27.8,03.1,0000.0,0001.89,0000.78,0000.48
2021-11-23 16:35:00,,0819.6,5.00,0.00,26.2,25.1,00.0,35.2,27.9,03.2,0000.0,0001.93,0000.80,0000.48
2021-11-23 16:36:00,,0819.6,4.99,0.00,26.2,25.1,00.0,35.2,27.8,03.2,0000.0,0001.87,0000.77,0000.47
2021-11-23 16:37:00,,0819.7,5.00,0.00,26.2,25.1,00.0,35.2,27.8,03.2,0000.0,0001.88,0000.77,0000.47
2021-11-23 16:38:00,,0819.7,5.01,0.00,26.2,25.0,00.0,35.2,27.8,03.2,0000.0,0001.70,0000.77,0000.46
2021-11-23 16:39:00,,0819.7,5.00,0.00,26.2,25.0,00.0,35.2,27.8,03.2,0000.0,0001.45,0000.76,0000.46
2021-11-23 16:40:00,,0819.6,4.99,0.00,26.2,25.0,00.0,35.2,27.8,03.2,0000.0,0001.29,0000.71,0000.45
2021-11-23 16:41:00,,0819.7,5.00,0.00,26.1,25.0,00.0,35.2,27.8,03.2,0000.0,0001.31,0000.70,0000.45
2021-11-23 16:42:00,,0819.7,5.00,0.00,26.1,25.0,00.0,35.2,27.8,03.1,0000.0,0001.49,0000.72,0000.46
2021-11-23 16:43:00,,0819.8,5.01,0.00,26.2,25.0,00.0,35.2,27.8,03.2,0000.0,0001.55,0000.75,0000.45
2021-11-23 16:44:00,,0819.9,5.01,0.00,26.2,24.9,00.0,35.2,27.8,03.2,0000.0,0001.55,0000.75,0000.45
2021-11-23 16:45:00,,0819.9,4.98,0.00,26.2,25.0,00.0,35.2,27.8,03.2,0000.0,0001.48,0000.72,0000.44
2021-11-23 16:46:00,,0819.8,5.00,0.00,26.2,24.9,00.0,35.2,27.8,03.2,0000.0,0001.41,0000.70,0000.44
2021-11-23 16:47:00,,0819.9,5.01,0.00,26.2,25.0,00.0,35.2,27.8,03.3,0000.0,0001.41,0000.71,0000.44
2021-11-23 16:48:00,,0819.9,5.00,0.00,26.2,25.0,00.0,35.2,27.9,03.3,0000.0,0001.38,0000.71,0000.44
2021-11-23 16:49:00,,0819.8,5.00,0.00,26.2,25.0,00.0,35.2,27.9,03.3,0000.0,0001.35,0000.69,0000.43
2021-11-23 16:50:00,,0819.8,5.00,0.00,26.2,25.0,00.0,35.2,27.9,03.2,0000.0,0001.39,0000.70,0000.43
2021-11-23 16:51:00,,0819.8,5.00,0.00,26.2,25.1,00.0,35.2,27.9,03.2,0000.0,0001.60,0000.72,0000.43
2021-11-23 16:52:00,,0819.7,5.00,0.00,26.2,25.1,00.0,35.2,27.9,03.2,0000.0,0001.55,0000.71,0000.43
2021-11-23 16:53:00,,0819.7,4.99,0.00,26.2,25.1,00.0,35.2,27.9,03.2,0000.0,0001.41,0000.69,0000.42
2021-11-23 16:54:00,,0819.7,5.01,0.00,26.2,25.1,00.0,35.2,27.9,03.3,0000.0,0001.38,0000.68,0000.42
2021-11-23 16:55:00,,0819.7,4.99,0.00,26.2,25.1,00.0,35.2,27.9,03.3,0000.0,0001.27,0000.66,0000.42
2021-11-23 16:56:00,,0819.7,5.00,0.00,26.2,25.1,00.0,35.2,27.9,03.3,0000.0,0001.18,0000.64,0000.42
2021-11-23 16:57:00,,0819.7,5.00,0.00,26.2,25.0,00.0,35.2,27.8,03.2,0000.0,0001.20,0000.62,0000.41
2021-11-23 16:58:00,,0819.7,5.01,0.00,26.2,25.0,00.0,35.2,27.9,03.3,0000.0,0001.15,0000.60,0000.40
2021-11-23 16:59:00,,0819.7,4.99,0.00,26.2,25.1,00.0,35.2,27.9,03.3,0000.0,0001.16,0000.59,0000.40
